User: anonymous   Login
Location: Unspecified
(51.0459°N, 0.0000°E)
Time: 20:46:26
(UTC+00:00)
Language:

ISS - Orbit

View from above orbital plane
View from above orbital plane
View from above satellite
View from above satellite

Ground track
Ground track

The orbit data is extracted from the following two-line orbital elements,

1 25544U 98067A   19171.51908121  .00016717  00000-0  10270-3 0  9036
2 25544  51.6396 344.7661 0008086  68.2884 291.9127 15.51213593 15766
Epoch (UTC): 20 June 2019 12:27:28
Eccentricity: 0.0008086
inclination: 51.6396°
perigee height: 407 km
apogee height: 418 km
right ascension of ascending node: 344.7661°
argument of perigee: 68.2884°
revolutions per day: 15.51213593
mean anomaly at epoch: 291.9127°
orbit number at epoch: 1576

The dashed part of the orbit path shows where the satellite is in the earth's shadow,  

DLR